owner,sensor,date,latitude,longitude,vertical_datum,sea_water_practical_salinity,qcFlag 
DISL,ioos:station:DISL:CATA:1,2009-12-01T00:00:00Z,30.3085,-88.1395,2.802,13.97,1111122 
DISL,ioos:station:DISL:CATA:1,2009-12-01T00:30:00Z,30.3085,-88.1395,2.817,14.1,1111122 
DISL,ioos:station:DISL:CATA:1,2009-12-01T01:00:00Z,30.3085,-88.1395,2.779,8.3,1111122 
DISL,ioos:station:DISL:CATA:1,2009-12-01T01:30:00Z,30.3085,-88.1395,2.759,7.48,1111122 
DISL,ioos:station:DISL:CATA:1,2009-12-01T02:00:00Z,30.3085,-88.1395,2.73,8.07,1111122 
DISL,ioos:station:DISL:CATA:1,2009-12-01T02:30:00Z,30.3085,-88.1395,2.703,8.32,1111122 
DISL,ioos:station:DISL:CATA:1,2009-12-01T03:00:00Z,30.3085,-88.1395,2.695,8.75,1111122 
DISL,ioos:station:DISL:CATA:1,2009-12-01T03:30:00Z,30.3085,-88.1395,2.672,9.24,1111122 
DISL,ioos:station:DISL:CATA:1,2009-12-01T04:00:00Z,30.3085,-88.1395,2.653,9.28,1111122 
DISL,ioos:station:DISL:CATA:1,2009-12-01T04:30:00Z,30.3085,-88.1395,2.61,8.84,1111122 
DISL,ioos:station:DISL:CATA:1,2009-12-01T05:00:00Z,30.3085,-88.1395,2.602,8.79,1111122 
DISL,ioos:station:DISL:CATA:1,2009-12-01T05:30:00Z,30.3085,-88.1395,2.578,8.86,1111122 
DISL,ioos:station:DISL:CATA:1,2009-12-01T06:00:00Z,30.3085,-88.1395,2.535,9.02,1111122 
DISL,ioos:station:DISL:CATA:1,2009-12-01T06:30:00Z,30.3085,-88.1395,2.512,8.82,1111122 
DISL,ioos:station:DISL:CATA:1,2009-12-01T07:00:00Z,30.3085,-88.1395,2.45,8.81,1111122 
DISL,ioos:station:DISL:CATA:1,2009-12-01T07:30:00Z,30.3085,-88.1395,2.404,8.9,1111122 
DISL,ioos:station:DISL:CATA:1,2009-12-01T08:00:00Z,30.3085,-88.1395,2.371,9.25,1111122 
DISL,ioos:station:DISL:CATA:1,2009-12-01T08:30:00Z,30.3085,-88.1395,2.315,9.29,1111122 
DISL,ioos:station:DISL:CATA:1,2009-12-01T09:00:00Z,30.3085,-88.1395,2.266,9.23,1111122 
DISL,ioos:station:DISL:CATA:1,2009-12-01T09:30:00Z,30.3085,-88.1395,2.236,9.14,1111122 
DISL,ioos:station:DISL:CATA:1,2009-12-01T10:00:00Z,30.3085,-88.1395,2.219,9.17,1111122 
DISL,ioos:station:DISL:CATA:1,2009-12-01T10:30:00Z,30.3085,-88.1395,2.201,8.73,1111122 
DISL,ioos:station:DISL:CATA:1,2009-12-01T11:00:00Z,30.3085,-88.1395,2.178,8.37,1111122 
DISL,ioos:station:DISL:CATA:1,2009-12-01T11:30:00Z,30.3085,-88.1395,2.177,8.18,1111122 
DISL,ioos:station:DISL:CATA:1,2009-12-01T12:00:00Z,30.3085,-88.1395,2.184,7.93,1111122 
DISL,ioos:station:DISL:CATA:1,2009-12-01T12:30:00Z,30.3085,-88.1395,2.189,7.55,1111122 
DISL,ioos:station:DISL:CATA:1,2009-12-01T13:00:00Z,30.3085,-88.1395,2.197,7.2,1111122 
DISL,ioos:station:DISL:CATA:1,2009-12-01T13:30:00Z,30.3085,-88.1395,2.213,6.97,1111122 
DISL,ioos:station:DISL:CATA:1,2009-12-01T14:00:00Z,30.3085,-88.1395,2.201,6.89,1111122 
DISL,ioos:station:DISL:CATA:1,2009-12-01T14:30:00Z,30.3085,-88.1395,2.202,7.0,1111122 
DISL,ioos:station:DISL:CATA:1,2009-12-01T15:00:00Z,30.3085,-88.1395,2.217,7.02,1111122 
DISL,ioos:station:DISL:CATA:1,2009-12-01T15:30:00Z,30.3085,-88.1395,2.24,7.21,1111122 
DISL,ioos:station:DISL:CATA:1,2009-12-01T16:00:00Z,30.3085,-88.1395,2.259,7.4,1111122 
DISL,ioos:station:DISL:CATA:1,2009-12-01T16:30:00Z,30.3085,-88.1395,2.319,8.0,1111122 
DISL,ioos:station:DISL:CATA:1,2009-12-01T17:00:00Z,30.3085,-88.1395,2.374,8.15,1111122 
DISL,ioos:station:DISL:CATA:1,2009-12-01T17:30:00Z,30.3085,-88.1395,2.406,7.5,1111122 
DISL,ioos:station:DISL:CATA:1,2009-12-01T18:00:00Z,30.3085,-88.1395,2.41,7.36,1111122 
DISL,ioos:station:DISL:CATA:1,2009-12-01T18:30:00Z,30.3085,-88.1395,2.422,7.36,1111122 
DISL,ioos:station:DISL:CATA:1,2009-12-01T19:00:00Z,30.3085,-88.1395,2.46,7.23,1111122 
DISL,ioos:station:DISL:CATA:1,2009-12-01T19:30:00Z,30.3085,-88.1395,2.495,7.17,1111122 
DISL,ioos:station:DISL:CATA:1,2009-12-01T20:00:00Z,30.3085,-88.1395,2.529,7.36,1111122 
DISL,ioos:station:DISL:CATA:1,2009-12-01T20:30:00Z,30.3085,-88.1395,2.526,7.44,1111122 
DISL,ioos:station:DISL:CATA:1,2009-12-01T21:00:00Z,30.3085,-88.1395,2.541,7.44,1111122 
DISL,ioos:station:DISL:CATA:1,2009-12-01T21:30:00Z,30.3085,-88.1395,2.611,7.36,1111122 
DISL,ioos:station:DISL:CATA:1,2009-12-01T22:00:00Z,30.3085,-88.1395,2.643,7.78,1111122 
DISL,ioos:station:DISL:CATA:1,2009-12-01T22:30:00Z,30.3085,-88.1395,2.695,7.57,1111122 
DISL,ioos:station:DISL:CATA:1,2009-12-01T23:00:00Z,30.3085,-88.1395,2.722,6.31,1111122 
DISL,ioos:station:DISL:CATA:1,2009-12-01T23:30:00Z,30.3085,-88.1395,2.715,5.57,1111122 
DISL,ioos:station:DISL:CATA:1,2009-12-02T00:00:00Z,30.3085,-88.1395,2.736,6.76,1111122 
DISL,ioos:station:DISL:CATA:1,2009-12-02T00:30:00Z,30.3085,-88.1395,2.793,7.68,1111122 
DISL,ioos:station:DISL:CATA:1,2009-12-02T01:00:00Z,30.3085,-88.1395,2.833,7.96,1111122 
DISL,ioos:station:DISL:CATA:1,2009-12-02T01:30:00Z,30.3085,-88.1395,2.903,8.88,1111122 
DISL,ioos:station:DISL:CATA:1,2009-12-02T02:00:00Z,30.3085,-88.1395,2.965,9.33,1111122 
DISL,ioos:station:DISL:CATA:1,2009-12-02T02:30:00Z,30.3085,-88.1395,3.017,9.18,1111122 
DISL,ioos:station:DISL:CATA:1,2009-12-02T03:00:00Z,30.3085,-88.1395,3.083,9.22,1111122 
DISL,ioos:station:DISL:CATA:1,2009-12-02T03:30:00Z,30.3085,-88.1395,3.027,9.1,1111122 
DISL,ioos:station:DISL:CATA:1,2009-12-02T04:00:00Z,30.3085,-88.1395,3.004,8.76,1111122 
DISL,ioos:station:DISL:CATA:1,2009-12-02T04:30:00Z,30.3085,-88.1395,3.215,8.85,1111122 
DISL,ioos:station:DISL:CATA:1,2009-12-02T05:00:00Z,30.3085,-88.1395,3.2,11.16,1111122 
DISL,ioos:station:DISL:CATA:1,2009-12-02T05:30:00Z,30.3085,-88.1395,3.004,12.27,1111122 
DISL,ioos:station:DISL:CATA:1,2009-12-02T06:00:00Z,30.3085,-88.1395,2.922,11.78,1111122 
DISL,ioos:station:DISL:CATA:1,2009-12-02T06:30:00Z,30.3085,-88.1395,2.804,10.0,1111122 
DISL,ioos:station:DISL:CATA:1,2009-12-02T07:00:00Z,30.3085,-88.1395,2.802,8.98,1111122 
DISL,ioos:station:DISL:CATA:1,2009-12-02T07:30:00Z,30.3085,-88.1395,2.797,10.0,1111122 
DISL,ioos:station:DISL:CATA:1,2009-12-02T08:00:00Z,30.3085,-88.1395,2.714,9.32,1111122 
DISL,ioos:station:DISL:CATA:1,2009-12-02T08:30:00Z,30.3085,-88.1395,2.666,10.31,1111122 
DISL,ioos:station:DISL:CATA:1,2009-12-02T09:00:00Z,30.3085,-88.1395,2.663,12.03,1111122 
DISL,ioos:station:DISL:CATA:1,2009-12-02T09:30:00Z,30.3085,-88.1395,2.625,17.68,1111122 
DISL,ioos:station:DISL:CATA:1,2009-12-02T10:00:00Z,30.3085,-88.1395,2.637,20.72,1111122 
DISL,ioos:station:DISL:CATA:1,2009-12-02T10:30:00Z,30.3085,-88.1395,2.649,24.1,1111122 
DISL,ioos:station:DISL:CATA:1,2009-12-02T11:00:00Z,30.3085,-88.1395,2.602,27.01,1111122 
DISL,ioos:station:DISL:CATA:1,2009-12-02T11:30:00Z,30.3085,-88.1395,2.563,28.06,1111122 
DISL,ioos:station:DISL:CATA:1,2009-12-02T12:00:00Z,30.3085,-88.1395,2.533,24.26,1111122 
DISL,ioos:station:DISL:CATA:1,2009-12-02T12:30:00Z,30.3085,-88.1395,2.512,24.8,1111122 
DISL,ioos:station:DISL:CATA:1,2009-12-02T13:00:00Z,30.3085,-88.1395,2.432,25.73,1111122 
DISL,ioos:station:DISL:CATA:1,2009-12-02T13:30:00Z,30.3085,-88.1395,2.382,24.12,1111122 
DISL,ioos:station:DISL:CATA:1,2009-12-02T14:00:00Z,30.3085,-88.1395,2.371,19.52,1111122 
DISL,ioos:station:DISL:CATA:1,2009-12-02T14:30:00Z,30.3085,-88.1395,2.413,16.74,1111122 
DISL,ioos:station:DISL:CATA:1,2009-12-02T15:00:00Z,30.3085,-88.1395,2.438,19.37,1111122 
DISL,ioos:station:DISL:CATA:1,2009-12-02T15:30:00Z,30.3085,-88.1395,2.494,14.09,1111122 
DISL,ioos:station:DISL:CATA:1,2009-12-02T16:00:00Z,30.3085,-88.1395,2.486,13.96,1111122 
DISL,ioos:station:DISL:CATA:1,2009-12-02T16:30:00Z,30.3085,-88.1395,2.47,19.26,1111122 
DISL,ioos:station:DISL:CATA:1,2009-12-02T17:00:00Z,30.3085,-88.1395,2.427,21.02,1111122 
DISL,ioos:station:DISL:CATA:1,2009-12-02T17:30:00Z,30.3085,-88.1395,2.473,17.28,1111122 
DISL,ioos:station:DISL:CATA:1,2009-12-02T18:00:00Z,30.3085,-88.1395,2.533,15.31,1111122 
DISL,ioos:station:DISL:CATA:1,2009-12-02T18:30:00Z,30.3085,-88.1395,2.527,14.92,1111122 
DISL,ioos:station:DISL:CATA:1,2009-12-02T19:00:00Z,30.3085,-88.1395,2.555,13.63,1111122 
DISL,ioos:station:DISL:CATA:1,2009-12-02T19:30:00Z,30.3085,-88.1395,2.563,11.07,1111122 
DISL,ioos:station:DISL:CATA:1,2009-12-02T20:00:00Z,30.3085,-88.1395,2.576,10.08,1111122 
DISL,ioos:station:DISL:CATA:1,2009-12-02T20:30:00Z,30.3085,-88.1395,2.621,9.71,1111122 
DISL,ioos:station:DISL:CATA:1,2009-12-02T21:00:00Z,30.3085,-88.1395,2.673,9.6,1111122 
DISL,ioos:station:DISL:CATA:1,2009-12-02T21:30:00Z,30.3085,-88.1395,2.709,9.78,1111122 
DISL,ioos:station:DISL:CATA:1,2009-12-02T22:00:00Z,30.3085,-88.1395,2.774,10.11,1111122 
DISL,ioos:station:DISL:CATA:1,2009-12-02T22:30:00Z,30.3085,-88.1395,2.777,10.94,1111122 
DISL,ioos:station:DISL:CATA:1,2009-12-02T23:00:00Z,30.3085,-88.1395,2.771,11.26,1111122 
DISL,ioos:station:DISL:CATA:1,2009-12-02T23:30:00Z,30.3085,-88.1395,2.81,11.57,1111122 
DISL,ioos:station:DISL:CATA:1,2009-12-03T00:00:00Z,30.3085,-88.1395,2.898,12.53,1111122 
DISL,ioos:station:DISL:CATA:1,2009-12-03T00:30:00Z,30.3085,-88.1395,2.942,13.33,1111122 
DISL,ioos:station:DISL:CATA:1,2009-12-03T01:00:00Z,30.3085,-88.1395,2.954,13.74,1111122 
DISL,ioos:station:DISL:CATA:1,2009-12-03T01:30:00Z,30.3085,-88.1395,2.952,13.93,1111122 
DISL,ioos:station:DISL:CATA:1,2009-12-03T02:00:00Z,30.3085,-88.1395,2.949,13.92,1111122 
DISL,ioos:station:DISL:CATA:1,2009-12-03T02:30:00Z,30.3085,-88.1395,2.958,14.27,1111122 
DISL,ioos:station:DISL:CATA:1,2009-12-03T03:00:00Z,30.3085,-88.1395,2.943,14.68,1111122 
DISL,ioos:station:DISL:CATA:1,2009-12-03T03:30:00Z,30.3085,-88.1395,2.916,15.0,1111122 
DISL,ioos:station:DISL:CATA:1,2009-12-03T04:00:00Z,30.3085,-88.1395,2.93,18.75,1111122 
DISL,ioos:station:DISL:CATA:1,2009-12-03T04:30:00Z,30.3085,-88.1395,2.921,19.7,1111122 
DISL,ioos:station:DISL:CATA:1,2009-12-03T05:00:00Z,30.3085,-88.1395,2.905,21.3,1111122 
DISL,ioos:station:DISL:CATA:1,2009-12-03T05:30:00Z,30.3085,-88.1395,2.897,22.62,1111122 
DISL,ioos:station:DISL:CATA:1,2009-12-03T06:00:00Z,30.3085,-88.1395,2.847,23.89,1111122 
DISL,ioos:station:DISL:CATA:1,2009-12-03T06:30:00Z,30.3085,-88.1395,2.812,24.13,1111122 
DISL,ioos:station:DISL:CATA:1,2009-12-03T07:00:00Z,30.3085,-88.1395,2.769,24.36,1111122 
DISL,ioos:station:DISL:CATA:1,2009-12-03T07:30:00Z,30.3085,-88.1395,2.743,20.86,1111122 
DISL,ioos:station:DISL:CATA:1,2009-12-03T08:00:00Z,30.3085,-88.1395,2.678,18.68,1111122 
DISL,ioos:station:DISL:CATA:1,2009-12-03T08:30:00Z,30.3085,-88.1395,2.63,18.42,1111122 
DISL,ioos:station:DISL:CATA:1,2009-12-03T09:00:00Z,30.3085,-88.1395,2.582,17.18,1111122 
DISL,ioos:station:DISL:CATA:1,2009-12-03T09:30:00Z,30.3085,-88.1395,2.544,15.03,1111122 
DISL,ioos:station:DISL:CATA:1,2009-12-03T10:00:00Z,30.3085,-88.1395,2.491,14.28,1111122 
DISL,ioos:station:DISL:CATA:1,2009-12-03T10:30:00Z,30.3085,-88.1395,2.409,13.6,1111122 
DISL,ioos:station:DISL:CATA:1,2009-12-03T11:00:00Z,30.3085,-88.1395,2.361,12.59,1111122 
DISL,ioos:station:DISL:CATA:1,2009-12-03T11:30:00Z,30.3085,-88.1395,2.318,12.02,1111122 
DISL,ioos:station:DISL:CATA:1,2009-12-03T12:00:00Z,30.3085,-88.1395,2.296,11.6,1111122 
DISL,ioos:station:DISL:CATA:1,2009-12-03T12:30:00Z,30.3085,-88.1395,2.268,11.38,1111122 
DISL,ioos:station:DISL:CATA:1,2009-12-03T13:00:00Z,30.3085,-88.1395,2.245,11.44,1111122 
DISL,ioos:station:DISL:CATA:1,2009-12-03T13:30:00Z,30.3085,-88.1395,2.218,11.55,1111122 
DISL,ioos:station:DISL:CATA:1,2009-12-03T14:00:00Z,30.3085,-88.1395,2.204,11.91,1111122 
DISL,ioos:station:DISL:CATA:1,2009-12-03T14:30:00Z,30.3085,-88.1395,2.221,11.89,1111122 
DISL,ioos:station:DISL:CATA:1,2009-12-03T15:00:00Z,30.3085,-88.1395,2.214,11.58,1111122 
DISL,ioos:station:DISL:CATA:1,2009-12-03T15:30:00Z,30.3085,-88.1395,2.225,11.75,1111122 
DISL,ioos:station:DISL:CATA:1,2009-12-03T16:00:00Z,30.3085,-88.1395,2.212,11.37,1111122 
DISL,ioos:station:DISL:CATA:1,2009-12-03T16:30:00Z,30.3085,-88.1395,2.216,10.92,1111122 
DISL,ioos:station:DISL:CATA:1,2009-12-03T17:00:00Z,30.3085,-88.1395,2.232,10.65,1111122 
DISL,ioos:station:DISL:CATA:1,2009-12-03T17:30:00Z,30.3085,-88.1395,2.247,10.71,1111122 
DISL,ioos:station:DISL:CATA:1,2009-12-03T18:00:00Z,30.3085,-88.1395,2.299,10.48,1111122 
DISL,ioos:station:DISL:CATA:1,2009-12-03T18:30:00Z,30.3085,-88.1395,2.349,10.56,1111122 
DISL,ioos:station:DISL:CATA:1,2009-12-03T19:00:00Z,30.3085,-88.1395,2.368,10.57,1111122 
DISL,ioos:station:DISL:CATA:1,2009-12-03T19:30:00Z,30.3085,-88.1395,2.384,10.46,1111122 
DISL,ioos:station:DISL:CATA:1,2009-12-03T20:00:00Z,30.3085,-88.1395,2.394,10.5,1111122 
DISL,ioos:station:DISL:CATA:1,2009-12-03T20:30:00Z,30.3085,-88.1395,2.437,10.48,1111122 
DISL,ioos:station:DISL:CATA:1,2009-12-03T21:00:00Z,30.3085,-88.1395,2.485,10.68,1111122 
DISL,ioos:station:DISL:CATA:1,2009-12-03T21:30:00Z,30.3085,-88.1395,2.514,10.73,1111122 
DISL,ioos:station:DISL:CATA:1,2009-12-03T22:00:00Z,30.3085,-88.1395,2.557,11.04,1111122 
DISL,ioos:station:DISL:CATA:1,2009-12-03T22:30:00Z,30.3085,-88.1395,2.587,11.48,1111122 
DISL,ioos:station:DISL:CATA:1,2009-12-03T23:00:00Z,30.3085,-88.1395,2.615,11.59,1111122 
DISL,ioos:station:DISL:CATA:1,2009-12-03T23:30:00Z,30.3085,-88.1395,2.644,12.14,1111122 
DISL,ioos:station:DISL:CATA:1,2009-12-04T00:00:00Z,30.3085,-88.1395,2.693,12.41,1111122 
DISL,ioos:station:DISL:CATA:1,2009-12-04T00:30:00Z,30.3085,-88.1395,2.748,12.78,1111122 
DISL,ioos:station:DISL:CATA:1,2009-12-04T01:00:00Z,30.3085,-88.1395,2.787,13.05,1111122 
DISL,ioos:station:DISL:CATA:1,2009-12-04T01:30:00Z,30.3085,-88.1395,2.84,14.06,1111122 
DISL,ioos:station:DISL:CATA:1,2009-12-04T02:00:00Z,30.3085,-88.1395,2.87,15.15,1111122 
DISL,ioos:station:DISL:CATA:1,2009-12-04T02:30:00Z,30.3085,-88.1395,2.895,16.02,1111122 
DISL,ioos:station:DISL:CATA:1,2009-12-04T03:00:00Z,30.3085,-88.1395,2.906,17.85,1111122 
DISL,ioos:station:DISL:CATA:1,2009-12-04T03:30:00Z,30.3085,-88.1395,2.926,18.6,1111122 
DISL,ioos:station:DISL:CATA:1,2009-12-04T04:00:00Z,30.3085,-88.1395,2.922,19.18,1111122 
DISL,ioos:station:DISL:CATA:1,2009-12-04T04:30:00Z,30.3085,-88.1395,2.925,20.5,1111122 
DISL,ioos:station:DISL:CATA:1,2009-12-04T05:00:00Z,30.3085,-88.1395,2.912,21.54,1111122 
DISL,ioos:station:DISL:CATA:1,2009-12-04T05:30:00Z,30.3085,-88.1395,2.891,22.54,1111122 
DISL,ioos:station:DISL:CATA:1,2009-12-04T06:00:00Z,30.3085,-88.1395,2.871,22.93,1111122 
DISL,ioos:station:DISL:CATA:1,2009-12-04T06:30:00Z,30.3085,-88.1395,2.844,23.64,1111122 
DISL,ioos:station:DISL:CATA:1,2009-12-04T07:00:00Z,30.3085,-88.1395,2.805,24.34,1111122 
DISL,ioos:station:DISL:CATA:1,2009-12-04T07:30:00Z,30.3085,-88.1395,2.773,23.04,1111122 
DISL,ioos:station:DISL:CATA:1,2009-12-04T08:00:00Z,30.3085,-88.1395,2.751,14.23,1111122 
DISL,ioos:station:DISL:CATA:1,2009-12-04T08:30:00Z,30.3085,-88.1395,2.705,12.28,1111122 
DISL,ioos:station:DISL:CATA:1,2009-12-04T09:00:00Z,30.3085,-88.1395,2.651,11.84,1111122 
DISL,ioos:station:DISL:CATA:1,2009-12-04T09:30:00Z,30.3085,-88.1395,2.586,11.33,1111122 
DISL,ioos:station:DISL:CATA:1,2009-12-04T10:00:00Z,30.3085,-88.1395,2.527,11.43,1111122 
DISL,ioos:station:DISL:CATA:1,2009-12-04T10:30:00Z,30.3085,-88.1395,2.471,11.39,1111122 
DISL,ioos:station:DISL:CATA:1,2009-12-04T11:00:00Z,30.3085,-88.1395,2.419,10.96,1111122 
DISL,ioos:station:DISL:CATA:1,2009-12-04T11:30:00Z,30.3085,-88.1395,2.373,10.56,1111122 
DISL,ioos:station:DISL:CATA:1,2009-12-04T12:00:00Z,30.3085,-88.1395,2.322,10.27,1111122 
DISL,ioos:station:DISL:CATA:1,2009-12-04T12:30:00Z,30.3085,-88.1395,2.287,10.17,1111122 
DISL,ioos:station:DISL:CATA:1,2009-12-04T13:00:00Z,30.3085,-88.1395,2.28,9.96,1111122 
DISL,ioos:station:DISL:CATA:1,2009-12-04T13:30:00Z,30.3085,-88.1395,2.235,10.53,1111122 
DISL,ioos:station:DISL:CATA:1,2009-12-04T14:00:00Z,30.3085,-88.1395,2.212,10.21,1111122 
DISL,ioos:station:DISL:CATA:1,2009-12-04T14:30:00Z,30.3085,-88.1395,2.188,10.0,1111122 
DISL,ioos:station:DISL:CATA:1,2009-12-04T15:00:00Z,30.3085,-88.1395,2.174,9.83,1111122 
DISL,ioos:station:DISL:CATA:1,2009-12-04T15:30:00Z,30.3085,-88.1395,2.195,9.64,1111122 
DISL,ioos:station:DISL:CATA:1,2009-12-04T16:00:00Z,30.3085,-88.1395,2.179,9.52,1111122 
DISL,ioos:station:DISL:CATA:1,2009-12-04T16:30:00Z,30.3085,-88.1395,2.157,9.57,1111122 
DISL,ioos:station:DISL:CATA:1,2009-12-04T17:00:00Z,30.3085,-88.1395,2.162,9.71,1111122 
DISL,ioos:station:DISL:CATA:1,2009-12-04T17:30:00Z,30.3085,-88.1395,2.154,9.77,1111122 
DISL,ioos:station:DISL:CATA:1,2009-12-04T18:00:00Z,30.3085,-88.1395,2.166,9.67,1111122 
DISL,ioos:station:DISL:CATA:1,2009-12-04T18:30:00Z,30.3085,-88.1395,2.185,9.75,1111122 
DISL,ioos:station:DISL:CATA:1,2009-12-04T19:00:00Z,30.3085,-88.1395,2.176,9.76,1111122 
DISL,ioos:station:DISL:CATA:1,2009-12-04T19:30:00Z,30.3085,-88.1395,2.228,9.95,1111122 
DISL,ioos:station:DISL:CATA:1,2009-12-04T20:00:00Z,30.3085,-88.1395,2.255,9.97,1111122 
DISL,ioos:station:DISL:CATA:1,2009-12-04T20:30:00Z,30.3085,-88.1395,2.27,9.88,1111122 
DISL,ioos:station:DISL:CATA:1,2009-12-04T21:00:00Z,30.3085,-88.1395,2.316,9.7,1111122 
DISL,ioos:station:DISL:CATA:1,2009-12-04T21:30:00Z,30.3085,-88.1395,2.371,9.67,1111122 
DISL,ioos:station:DISL:CATA:1,2009-12-04T22:00:00Z,30.3085,-88.1395,2.405,9.68,1111122 
DISL,ioos:station:DISL:CATA:1,2009-12-04T22:30:00Z,30.3085,-88.1395,2.435,9.66,1111122 
DISL,ioos:station:DISL:CATA:1,2009-12-04T23:00:00Z,30.3085,-88.1395,2.466,9.76,1111122 
DISL,ioos:station:DISL:CATA:1,2009-12-04T23:30:00Z,30.3085,-88.1395,2.521,9.71,1111122 
DISL,ioos:station:DISL:CATA:1,2009-12-05T00:00:00Z,30.3085,-88.1395,2.558,10.17,1111122 
DISL,ioos:station:DISL:CATA:1,2009-12-05T00:30:00Z,30.3085,-88.1395,2.574,11.11,1111122 
DISL,ioos:station:DISL:CATA:1,2009-12-05T01:00:00Z,30.3085,-88.1395,2.632,11.45,1111122 
DISL,ioos:station:DISL:CATA:1,2009-12-05T01:30:00Z,30.3085,-88.1395,2.692,12.19,1111122 
DISL,ioos:station:DISL:CATA:1,2009-12-05T02:00:00Z,30.3085,-88.1395,2.712,15.13,1111122 
DISL,ioos:station:DISL:CATA:1,2009-12-05T02:30:00Z,30.3085,-88.1395,2.748,17.29,1111122 
DISL,ioos:station:DISL:CATA:1,2009-12-05T03:00:00Z,30.3085,-88.1395,2.786,17.97,1111122 
DISL,ioos:station:DISL:CATA:1,2009-12-05T03:30:00Z,30.3085,-88.1395,2.843,19.44,1111122 
DISL,ioos:station:DISL:CATA:1,2009-12-05T04:00:00Z,30.3085,-88.1395,2.818,20.25,1111122 
DISL,ioos:station:DISL:CATA:1,2009-12-05T04:30:00Z,30.3085,-88.1395,2.815,20.57,1111122 
DISL,ioos:station:DISL:CATA:1,2009-12-05T05:00:00Z,30.3085,-88.1395,2.779,20.86,1111122 
DISL,ioos:station:DISL:CATA:1,2009-12-05T05:30:00Z,30.3085,-88.1395,2.746,21.31,1111122 
DISL,ioos:station:DISL:CATA:1,2009-12-05T06:00:00Z,30.3085,-88.1395,2.724,21.37,1111122 
DISL,ioos:station:DISL:CATA:1,2009-12-05T06:30:00Z,30.3085,-88.1395,2.696,21.6,1111122 
DISL,ioos:station:DISL:CATA:1,2009-12-05T07:00:00Z,30.3085,-88.1395,2.738,21.74,1111122 
DISL,ioos:station:DISL:CATA:1,2009-12-05T07:30:00Z,30.3085,-88.1395,2.686,21.96,1111122 
DISL,ioos:station:DISL:CATA:1,2009-12-05T08:00:00Z,30.3085,-88.1395,2.678,21.92,1111122 
DISL,ioos:station:DISL:CATA:1,2009-12-05T08:30:00Z,30.3085,-88.1395,2.694,21.74,1111122 
DISL,ioos:station:DISL:CATA:1,2009-12-05T09:00:00Z,30.3085,-88.1395,2.67,21.32,1111122 
DISL,ioos:station:DISL:CATA:1,2009-12-05T09:30:00Z,30.3085,-88.1395,2.634,23.19,1111122 
DISL,ioos:station:DISL:CATA:1,2009-12-05T10:00:00Z,30.3085,-88.1395,2.577,24.09,1111122 
DISL,ioos:station:DISL:CATA:1,2009-12-05T10:30:00Z,30.3085,-88.1395,2.523,23.11,1111122 
DISL,ioos:station:DISL:CATA:1,2009-12-05T11:00:00Z,30.3085,-88.1395,2.481,11.72,1111122 
DISL,ioos:station:DISL:CATA:1,2009-12-05T11:30:00Z,30.3085,-88.1395,2.432,11.34,1111122 
DISL,ioos:station:DISL:CATA:1,2009-12-05T12:00:00Z,30.3085,-88.1395,2.361,12.1,1111122 
DISL,ioos:station:DISL:CATA:1,2009-12-05T12:30:00Z,30.3085,-88.1395,2.315,12.85,1111122 
DISL,ioos:station:DISL:CATA:1,2009-12-05T13:00:00Z,30.3085,-88.1395,2.284,12.95,1111122 
DISL,ioos:station:DISL:CATA:1,2009-12-05T13:30:00Z,30.3085,-88.1395,2.252,12.62,1111122 
DISL,ioos:station:DISL:CATA:1,2009-12-05T14:00:00Z,30.3085,-88.1395,2.225,12.13,1111122 
DISL,ioos:station:DISL:CATA:1,2009-12-05T14:30:00Z,30.3085,-88.1395,2.203,11.86,1111122 
DISL,ioos:station:DISL:CATA:1,2009-12-05T15:00:00Z,30.3085,-88.1395,2.183,11.57,1111122 
DISL,ioos:station:DISL:CATA:1,2009-12-05T15:30:00Z,30.3085,-88.1395,2.172,11.37,1111122 
DISL,ioos:station:DISL:CATA:1,2009-12-05T16:00:00Z,30.3085,-88.1395,2.137,11.34,1111122 
DISL,ioos:station:DISL:CATA:1,2009-12-05T16:30:00Z,30.3085,-88.1395,2.13,11.25,1111122 
DISL,ioos:station:DISL:CATA:1,2009-12-05T17:00:00Z,30.3085,-88.1395,2.12,11.35,1111122 
DISL,ioos:station:DISL:CATA:1,2009-12-05T17:30:00Z,30.3085,-88.1395,2.093,11.27,1111122 
DISL,ioos:station:DISL:CATA:1,2009-12-05T18:00:00Z,30.3085,-88.1395,2.096,11.29,1111122 
DISL,ioos:station:DISL:CATA:1,2009-12-05T18:30:00Z,30.3085,-88.1395,2.108,11.35,1111122 
DISL,ioos:station:DISL:CATA:1,2009-12-05T19:00:00Z,30.3085,-88.1395,2.141,11.47,1111122 
DISL,ioos:station:DISL:CATA:1,2009-12-05T19:30:00Z,30.3085,-88.1395,2.165,11.41,1111122 
DISL,ioos:station:DISL:CATA:1,2009-12-05T20:00:00Z,30.3085,-88.1395,2.195,11.59,1111122 
DISL,ioos:station:DISL:CATA:1,2009-12-05T20:30:00Z,30.3085,-88.1395,2.216,11.18,1111122 
DISL,ioos:station:DISL:CATA:1,2009-12-05T21:00:00Z,30.3085,-88.1395,2.245,11.23,1111122 
DISL,ioos:station:DISL:CATA:1,2009-12-05T21:30:00Z,30.3085,-88.1395,2.27,11.19,1111122 
DISL,ioos:station:DISL:CATA:1,2009-12-05T22:00:00Z,30.3085,-88.1395,2.292,11.17,1111122 
DISL,ioos:station:DISL:CATA:1,2009-12-05T22:30:00Z,30.3085,-88.1395,2.315,10.59,1111122 
DISL,ioos:station:DISL:CATA:1,2009-12-05T23:00:00Z,30.3085,-88.1395,2.347,10.4,1111122 
DISL,ioos:station:DISL:CATA:1,2009-12-05T23:30:00Z,30.3085,-88.1395,2.381,10.41,1111122 
DISL,ioos:station:DISL:CATA:1,2009-12-06T00:00:00Z,30.3085,-88.1395,2.408,10.41,1111122 
DISL,ioos:station:DISL:CATA:1,2009-12-06T00:30:00Z,30.3085,-88.1395,2.437,10.51,1111122 
DISL,ioos:station:DISL:CATA:1,2009-12-06T01:00:00Z,30.3085,-88.1395,2.469,10.83,1111122 
DISL,ioos:station:DISL:CATA:1,2009-12-06T01:30:00Z,30.3085,-88.1395,2.504,11.52,1111122 
DISL,ioos:station:DISL:CATA:1,2009-12-06T02:00:00Z,30.3085,-88.1395,2.524,12.43,1111122 
DISL,ioos:station:DISL:CATA:1,2009-12-06T02:30:00Z,30.3085,-88.1395,2.571,12.58,1111122 
DISL,ioos:station:DISL:CATA:1,2009-12-06T03:00:00Z,30.3085,-88.1395,2.611,12.87,1111122 
DISL,ioos:station:DISL:CATA:1,2009-12-06T03:30:00Z,30.3085,-88.1395,2.64,13.26,1111122 
DISL,ioos:station:DISL:CATA:1,2009-12-06T04:00:00Z,30.3085,-88.1395,2.676,13.72,1111122 
DISL,ioos:station:DISL:CATA:1,2009-12-06T04:30:00Z,30.3085,-88.1395,2.687,15.78,1111122 
DISL,ioos:station:DISL:CATA:1,2009-12-06T05:00:00Z,30.3085,-88.1395,2.703,17.09,1111122 
DISL,ioos:station:DISL:CATA:1,2009-12-06T05:30:00Z,30.3085,-88.1395,2.718,18.84,1111122 
DISL,ioos:station:DISL:CATA:1,2009-12-06T06:00:00Z,30.3085,-88.1395,2.713,20.73,1111122 
DISL,ioos:station:DISL:CATA:1,2009-12-06T06:30:00Z,30.3085,-88.1395,2.711,21.44,1111122 
DISL,ioos:station:DISL:CATA:1,2009-12-06T07:00:00Z,30.3085,-88.1395,2.697,21.6,1111122 
DISL,ioos:station:DISL:CATA:1,2009-12-06T07:30:00Z,30.3085,-88.1395,2.65,21.69,1111122 
DISL,ioos:station:DISL:CATA:1,2009-12-06T08:00:00Z,30.3085,-88.1395,2.625,13.09,1111122 
DISL,ioos:station:DISL:CATA:1,2009-12-06T08:30:00Z,30.3085,-88.1395,2.622,11.32,1111122 
DISL,ioos:station:DISL:CATA:1,2009-12-06T09:00:00Z,30.3085,-88.1395,2.609,11.11,1111122 
DISL,ioos:station:DISL:CATA:1,2009-12-06T09:30:00Z,30.3085,-88.1395,2.593,10.75,1111122 
DISL,ioos:station:DISL:CATA:1,2009-12-06T10:00:00Z,30.3085,-88.1395,2.552,10.45,1111122 
DISL,ioos:station:DISL:CATA:1,2009-12-06T10:30:00Z,30.3085,-88.1395,2.512,10.94,1111122 
DISL,ioos:station:DISL:CATA:1,2009-12-06T11:00:00Z,30.3085,-88.1395,2.469,11.35,1111122 
DISL,ioos:station:DISL:CATA:1,2009-12-06T11:30:00Z,30.3085,-88.1395,2.426,11.69,1111122 
DISL,ioos:station:DISL:CATA:1,2009-12-06T12:00:00Z,30.3085,-88.1395,2.383,11.79,1111122 
DISL,ioos:station:DISL:CATA:1,2009-12-06T12:30:00Z,30.3085,-88.1395,2.338,11.86,1111122 
DISL,ioos:station:DISL:CATA:1,2009-12-06T13:00:00Z,30.3085,-88.1395,2.298,11.94,1111122 
DISL,ioos:station:DISL:CATA:1,2009-12-06T13:30:00Z,30.3085,-88.1395,2.277,11.97,1111122 
DISL,ioos:station:DISL:CATA:1,2009-12-06T14:00:00Z,30.3085,-88.1395,2.248,12.02,1111122 
DISL,ioos:station:DISL:CATA:1,2009-12-06T14:30:00Z,30.3085,-88.1395,2.21,11.9,1111122 